D/1892 T1 (Barnard 3)

Epoch 2005 Apr. 20.0 TT = JDT 2453480.5  

T 2005 May 3.21703 TT                                   Nakano

q   1.5581834            (2000.0)            P               Q

n   0.14031207     Peri.  201.99673     +0.74246685     -0.64802232

a   3.6678032      Node   201.38704     +0.66277428     +0.74743094

e   0.5751726      Incl.   27.73959     +0.09733056     -0.14633546

P   7.02

From Yeomans orbit (CCO), 40 observations 1892 Oct. 14-Dec. 8.



NAKANO

         **** Don't distribute anyone except personal use only ****

                (C) Copyright 2002 OAA/ComputingSection

write mail from CFAD0::NAKANO on 2002-05-10 00:07:37(JST).





–ß‚è‚Ü‚·B